FW7576 Weather Reports


time (UTC)temp
C
wind
direction
speed
KPH
gust
KPH
rain 1hr
cm
rain 24hr
cm
rain mn
cm
humidity
%
barometer
mb
20260502201542 10 122 6.4 14.5 0.00 0.00 0.00 51 1016.7
20260502200039 10 132 8.0 16.1 0.00 0.00 0.00 49 1017.0
20260502194541 10 142 6.4 16.1 0.00 0.00 0.00 47 1017.2
20260502193044 10 141 4.8 16.1 0.00 0.00 0.00 46 1017.5
20260502191544 10 97 6.4 17.7 0.00 0.00 0.00 47 1017.5
20260502190037 10 129 8.0 19.3 0.00 0.00 0.00 46 1017.7
20260502184547 11 115 8.0 19.3 0.00 0.00 0.00 45 1017.8
20260502183040 10 82 9.7 27.4 0.00 0.00 0.00 45 1017.9
20260502181540 11 29 4.8 16.1 0.00 0.00 0.00 40 1017.9
20260502163037 10 50 3.2 17.7 0.00 0.00 0.00 42 1018.9
20260502161536 10 236 1.6 16.1 0.00 0.00 0.00 43 1019.0
20260502151538 8 280 6.4 16.1 0.00 0.00 0.00 50 1019.5
20260502123048 2 256 4.8 9.7 0.00 0.00 0.00 82 1019.8
20260502121544 2 295 3.2 9.7 0.00 0.00 0.00 84 1019.8
20260502114539 1 276 0.0 3.2 0.00 0.00 0.00 86 1019.7
20260502113039 0 0 0.0 4.8 0.00 0.00 0.00 87 1019.7
20260502111539 0 248 0.0 1.6 0.00 0.00 0.00 88 1019.5
20260502110040 -1 0 0.0 1.6 0.00 0.00 0.00 89 1019.6
20260502104540 -1 0 0.0 1.6 0.00 0.00 0.00 89 1019.6
20260502103052 -1 0 0.0 0.0 0.00 0.00 0.00 89 1019.5
20260502101538 -1 0 0.0 0.0 0.00 0.00 0.00 88 1019.5
20260502070040 0 85 0.0 1.6 0.00 0.00 0.00 86 1019.4
20260502064539 -1 84 0.0 1.6 0.00 0.00 0.00 87 1019.5
20260502063039 -1 0 0.0 0.0 0.00 0.00 0.00 86 1019.6
20260502061537 -1 0 0.0 0.0 0.00 0.00 0.00 84 1019.7
20260502060040 -1 84 0.0 1.6 0.00 0.00 0.00 85 1019.9
20260502054543 -1 0 0.0 0.0 0.00 0.00 0.00 85 1019.8
20260502053039 -1 0 0.0 0.0 0.00 0.00 0.00 84 1019.8
20260502051535 -1 0 0.0 0.0 0.00 0.00 0.00 83 1019.7
20260502050036 0 0 0.0 0.0 0.00 0.00 0.00 83 1019.8
20260502044536 0 0 0.0 0.0 0.00 0.00 0.00 82 1019.8
20260502043040 0 0 0.0 0.0 0.00 0.00 0.00 81 1019.7
20260502041540 0 0 0.0 1.6 0.00 0.00 0.00 81 1019.6
20260502040039 0 0 0.0 1.6 0.00 0.00 0.00 80 1019.4
20260502034536 0 0 0.0 0.0 0.00 0.00 0.00 79 1019.6
20260502033043 0 0 0.0 0.0 0.00 0.00 0.00 77 1019.5
20260502031539 0 0 0.0 0.0 0.00 0.00 0.00 75 1019.4
20260502030040 0 0 0.0 0.0 0.00 0.00 0.00 75 1019.4
20260502024537 1 0 0.0 0.0 0.00 0.00 0.00 73 1019.4
20260502023047 1 0 0.0 0.0 0.00 0.00 0.00 71 1019.4
20260502021541 1 0 0.0 0.0 0.00 0.00 0.00 70 1019.4
20260502020039 2 0 0.0 0.0 0.00 0.00 0.00 67 1019.2
20260502014544 2 0 0.0 1.6 0.00 0.00 0.00 66 1018.9
20260502013044 3 0 0.0 0.0 0.00 0.00 0.00 64 1019.0
20260502011536 3 90 0.0 1.6 0.00 0.00 0.00 64 1018.9
20260502010047 3 0 0.0 3.2 0.00 0.00 0.00 63 1018.7
20260502004553 4 0 1.6 3.2 0.00 0.00 0.00 62 1018.7
20260502003037 4 92 3.2 8.0 0.00 0.00 0.00 60 1018.6
20260502001536 5 58 1.6 9.7 0.00 0.00 0.00 59 1018.6
20260502000052 5 119 1.6 9.7 0.00 0.00 0.00 58 1018.5
20260501234540 5 117 3.2 8.0 0.00 0.00 0.00 57 1018.5
20260501233041 5 157 3.2 6.4 0.00 0.00 0.00 57 1018.6
20260501231540 5 67 3.2 4.8 0.00 0.00 0.00 56 1018.6
20260501230036 5 0 1.6 8.0 0.00 0.00 0.00 59 1018.6
20260501224539 5 86 1.6 6.4 0.00 0.00 0.00 58 1018.6
20260501223040 5 57 0.0 6.4 0.00 0.00 0.00 61 1018.6
20260501221538 4 26 1.6 6.4 0.00 0.00 0.00 62 1018.6
20260501220042 3 91 1.6 6.4 0.00 0.00 0.00 62 1018.6
20260501214537 3 76 3.2 9.7 0.00 0.00 0.00 61 1018.5
20260501213044 4 53 4.8 11.3 0.00 0.00 0.00 57 1018.4
20260501211534 4 82 6.4 12.9 0.00 0.00 0.00 55 1018.3
20260501210040 4 76 4.8 14.5 0.00 0.00 0.00 56 1018.3
20260501204546 4 67 4.8 14.5 0.00 0.00 0.00 59 1018.3
20260501203036 4 53 8.0 16.1 0.00 0.00 0.00 62 1018.1